Wind_Speed
9 9 7 21 7 2 12 12 16 11 11 15 12 13 12 16 10 4 24 21 27 23 17 15 16 15 14 14 14 14 13 12 10 9 10 10 9 8 8 8 8 8 9 9 8 9 8 7 8
7 6 10 3 4 4 4 11 15 13 15 10 7 6 19 16 11 18 19 22 29 23 17 16 15 15 14 14 14 13 12 11 9 9 9 9 9 9 9 8 8 9 9 9 9 8 8 7 7
4 14 4 3 3 5 10 11 14 13 11 8 5 13 11 16 21 17 25 24 25 24 21 17 16 15 15 14 13 12 11 10 10 9 10 10 10 11 9 9 9 9 8 7 7 8 9 7 7
9 8 3 2 5 16 17 14 16 12 8 2 16 11 19 20 21 24 24 23 23 26 22 18 17 15 14 14 13 13 12 11 11 11 11 11 10 11 9 9 8 8 7 6 5 6 5 5 4
12 5 4 4 16 16 14 12 11 11 9 9 20 17 16 18 26 25 23 27 30 24 22 18 16 15 14 14 13 13 13 12 12 11 11 10 10 11 9 9 8 7 6 4 3 2 2 2 1
5 4 1 8 13 13 12 8 11 14 12 9 17 15 11 20 23 22 20 18 29 24 21 18 16 14 14 14 14 13 13 12 12 11 12 10 10 10 9 9 7 7 6 4 3 2 3 3 3
3 5 5 7 14 11 10 10 10 12 11 13 16 15 11 16 20 20 18 16 29 26 22 17 14 13 12 13 13 13 12 11 11 11 10 10 9 11 9 7 7 6 5 4 4 4 5 5 6
6 5 7 9 4 17 5 10 11 12 17 12 13 7 15 20 21 20 16 16 18 24 21 20 17 13 12 11 12 12 12 11 11 11 10 9 9 8 8 8 7 6 5 5 5 6 7 8 8
2 4 5 5 4 12 11 12 13 14 11 7 2 19 20 24 22 19 15 16 13 24 23 25 18 16 16 15 12 11 11 10 10 9 10 11 9 8 7 6 7 4 5 5 6 6 9 9 7
5 4 2 13 8 6 9 13 12 10 12 11 17 22 25 23 22 20 16 17 17 16 21 22 20 19 19 16 13 12 11 10 10 9 9 12 14 10 11 6 5 4 4 6 7 7 9 11 11
5 5 10 10 10 7 11 8 23 1 3 15 17 18 18 20 18 18 17 19 17 15 16 20 25 24 19 23 18 19 16 16 13 12 9 8 13 11 9 7 7 5 4 7 11 12 10 16 9
7 19 6 7 6 8 10 5 16 9 9 17 19 18 19 17 14 18 16 18 18 15 15 15 33 20 19 20 18 20 20 21 18 13 11 8 5 8 10 6 7 1 5 7 4 9 9 10 18
9 8 9 5 3 10 5 5 5 11 13 15 19 18 17 16 16 17 16 17 17 18 16 14 19 17 11 22 15 16 15 20 15 17 13 6 8 7 8 2 3 4 7 10 8 9 8 11 10
10 7 8 5 4 4 9 5 3 13 12 15 16 16 15 16 16 17 15 16 18 18 17 17 15 14 6 10 11 6 13 13 14 15 14 13 12 12 7 6 6 6 6 8 11 15 11 8 9
28 10 13 10 7 1 12 4 12 21 10 13 14 14 14 14 16 16 13 15 16 19 19 18 17 14 12 11 10 12 6 12 12 12 18 15 13 7 9 9 9 10 6 4 9 8 11 10 11
19 9 10 13 21 19 7 6 8 22 12 15 13 11 12 13 15 16 15 14 16 18 20 19 18 19 16 15 16 13 11 12 15 15 15 13 14 10 8 8 10 8 2 5 11 11 7 12 15
6 4 13 10 16 10 22 6 18 7 20 14 13 14 12 12 12 15 18 17 20 16 20 18 19 24 21 19 17 17 17 17 16 17 19 18 17 13 12 12 10 3 2 8 5 5 8 16 13
7 6 8 14 11 13 16 5 19 22 15 25 17 14 15 13 15 19 18 18 20 18 20 19 21 18 25 20 19 19 17 18 16 16 16 19 18 15 12 13 9 3 6 5 4 5 8 10 11
4 3 7 10 19 11 14 7 4 22 20 23 18 18 16 15 17 22 20 21 22 22 23 21 22 19 28 22 21 19 18 19 17 19 17 21 16 16 17 14 13 14 3 9 9 2 5 6 11
8 10 11 15 16 17 2 20 23 13 16 21 18 16 17 17 15 19 24 22 23 26 27 26 22 21 25 23 23 21 21 22 21 20 22 18 11 11 19 15 15 15 10 9 17 5 3 0 5
9 11 8 9 5 11 6 17 17 25 25 8 3 19 15 18 19 20 24 26 26 30 33 33 30 29 27 25 23 23 18 19 21 19 22 25 23 18 16 12 4 2 12 19 16 7 4 4 3
3 7 11 9 4 4 15 5 4 15 20 3 3 3 5 14 8 11 18 28 30 30 34 32 34 32 31 29 24 22 19 15 16 12 11 20 16 17 15 14 4 9 11 15 12 11 10 5 4
9 10 10 14 10 5 5 9 6 15 9 11 12 11 8 12 15 19 14 29 31 32 31 27 36 32 28 32 25 27 20 20 11 9 12 14 13 12 11 8 9 10 11 12 11 12 11 9 6
12 15 14 16 11 6 8 7 8 7 9 10 9 10 12 12 12 4 25 26 15 26 31 39 37 37 36 32 34 24 27 18 11 11 10 8 7 7 6 9 9 9 9 9 9 9 11 9 7
13 14 4 5 3 3 7 1 10 15 11 7 4 4 5 6 9 9 19 15 33 25 23 24 39 34 36 35 31 28 5 6 6 9 10 8 10 4 8 8 6 3 5 5 7 8 8 5 4
12 9 10 12 9 3 4 4 8 15 14 10 8 5 7 6 11 13 13 20 17 28 35 23 31 30 33 29 23 10 14 12 5 2 2 3 3 4 7 3 1 7 5 6 4 3 3 0 2
6 10 16 10 14 6 5 12 18 10 12 13 9 11 12 7 6 9 15 10 24 6 16 21 23 23 28 31 29 24 24 21 7 7 9 5 6 11 17 10 10 10 6 5 5 5 5 3 3
8 8 8 6 5 7 10 8 10 10 10 10 8 9 10 9 6 2 5 11 9 3 12 18 20 22 23 20 27 27 33 31 24 16 26 24 16 16 12 12 11 12 8 7 5 4 6 8 6
8 6 11 11 6 6 10 7 12 9 6 6 6 9 10 8 10 6 6 6 7 9 5 6 19 21 19 21 24 28 35 33 34 26 23 14 11 10 13 14 13 10 10 10 7 8 8 7 6
8 8 10 8 11 11 12 10 6 7 3 6 8 11 11 6 8 7 5 7 8 8 7 12 5 18 23 24 27 31 36 35 27 25 18 17 20 13 14 14 12 10 9 10 12 11 9 10 6
Wind_Direction
270 273 296 344 292 49 112 105 92 117 85 65 47 88 52 47 83 93 153 125 131 130 133 130 127 124 125 126 135 141 135 125 125 118 122 119 121 117 112 108 104 109 111 110 107 108 110 110 103
265 268 69 196 259 121 119 111 93 79 89 89 80 18 70 69 114 136 120 137 129 131 136 133 129 133 132 134 137 138 136 138 135 130 126 127 123 122 115 119 118 110 104 97 100 103 104 105 105
259 136 113 175 216 139 107 100 77 94 113 120 93 43 51 101 118 121 127 134 126 130 135 140 137 143 139 137 131 131 135 142 141 138 129 128 133 128 129 122 122 118 112 103 100 100 103 110 117
260 212 227 189 105 85 93 92 110 117 131 28 114 81 101 112 113 128 141 145 129 131 134 137 142 141 139 140 137 140 142 145 138 137 136 140 137 128 132 126 126 125 122 113 112 109 108 112 118
234 262 277 217 84 81 73 92 123 110 126 112 104 107 107 97 118 137 142 129 127 131 131 137 145 140 142 140 147 142 142 141 137 140 142 140 132 137 139 135 130 136 137 131 132 118 106 88 16
337 312 268 121 99 101 91 100 104 86 95 92 95 123 111 115 137 140 142 149 134 132 131 133 145 146 148 149 145 143 141 141 143 151 141 146 148 145 143 145 142 147 148 156 170 194 210 216 235
70 304 264 129 96 85 79 117 102 98 124 117 134 125 129 140 142 143 147 152 135 134 130 137 146 150 151 148 148 148 146 152 153 148 148 149 158 157 158 152 149 148 156 180 204 226 245 253 250
131 259 29 47 342 95 108 70 63 90 80 127 139 130 156 147 151 145 159 147 149 135 139 146 148 155 155 154 153 152 149 150 149 149 154 160 162 167 164 155 151 156 170 206 232 251 261 262 271
9 278 67 136 216 109 141 128 72 92 121 115 49 136 148 149 149 155 168 144 138 149 146 146 152 163 166 159 160 158 158 154 154 157 169 174 173 170 191 178 190 190 204 230 254 271 283 279 276
41 299 144 129 174 239 130 93 134 137 146 130 89 110 134 157 156 159 172 159 158 173 154 154 160 163 172 159 162 163 165 167 165 173 192 183 189 185 184 182 218 224 250 262 267 278 307 279 243
210 241 73 37 158 139 128 98 108 96 324 140 131 136 148 161 169 162 183 166 165 185 163 171 158 164 182 158 159 175 176 176 176 184 212 216 217 178 188 204 210 222 260 295 263 287 292 299 149
184 228 89 155 142 126 101 161 126 153 109 122 135 146 155 165 175 171 187 165 169 183 171 178 157 164 182 153 164 185 177 172 167 184 214 237 177 178 223 207 203 246 238 289 282 299 322 335 53
295 254 140 86 225 106 118 44 77 95 102 117 136 152 160 171 176 174 184 170 177 173 175 189 146 164 171 153 168 187 185 161 175 172 197 207 197 195 246 264 244 235 251 269 297 317 321 317 314
235 114 155 163 133 127 190 137 260 123 129 131 146 163 171 174 176 169 181 174 175 172 179 182 149 175 170 154 166 178 166 163 166 175 189 181 216 200 208 232 248 224 258 298 299 301 302 323 345
22 8 354 178 180 131 109 3 28 293 148 141 159 173 176 180 178 166 180 177 185 169 180 175 161 180 192 181 169 196 207 163 186 190 191 189 199 187 212 222 250 255 256 296 301 307 302 332 11
42 12 341 303 344 325 236 113 261 265 248 159 168 174 179 182 179 171 171 175 173 168 174 176 182 177 195 187 188 197 218 206 187 197 190 190 203 210 213 241 260 252 222 287 270 314 20 6 8
103 162 256 287 323 316 281 189 222 169 330 164 168 170 183 189 193 173 169 183 169 173 164 173 179 172 185 185 192 204 212 216 197 200 193 198 197 206 210 230 238 251 205 265 291 15 23 32 357
177 212 217 190 243 260 272 304 145 137 194 257 172 180 178 190 188 176 183 184 170 166 162 176 179 187 179 187 193 207 216 218 211 198 211 198 191 201 219 229 245 221 232 234 13 13 15 17 353
151 38 299 199 216 218 232 262 352 162 165 284 165 182 190 185 185 181 186 179 173 168 166 178 178 193 176 177 196 206 217 204 223 204 208 190 196 199 205 216 246 221 153 78 7 344 38 13 348
104 121 271 254 159 208 67 29 19 347 194 218 173 185 196 188 187 180 174 187 185 170 167 180 187 187 179 184 193 207 215 203 214 220 200 198 201 214 209 213 221 207 193 295 254 251 97 176 319
8 324 325 334 303 38 20 33 48 322 315 48 347 180 188 205 195 185 170 183 190 175 171 177 188 191 187 191 197 212 221 225 214 225 199 198 207 205 236 228 248 344 163 191 197 213 231 226 242
325 279 305 317 76 172 254 147 256 230 255 162 204 62 224 199 174 265 176 175 192 189 175 178 185 190 193 196 197 204 213 221 229 223 157 187 205 191 216 235 244 185 177 174 187 212 215 205 211
329 329 300 291 266 185 297 129 211 206 201 61 56 36 18 341 192 195 178 190 197 192 167 186 186 186 192 200 201 204 204 221 224 217 156 170 184 193 202 217 207 192 160 192 203 208 217 227 214
306 271 261 288 277 337 80 152 164 128 66 45 40 34 11 355 317 246 190 201 195 190 174 186 183 185 187 201 204 206 203 206 190 174 173 187 173 167 180 176 181 191 203 213 217 225 232 226 225
286 300 314 284 75 291 80 74 108 119 112 107 110 58 56 358 323 303 176 207 196 190 133 241 182 184 187 193 207 215 162 285 246 176 183 148 129 166 171 177 186 200 220 225 224 226 226 231 247
305 325 338 334 356 277 150 92 137 124 128 151 72 38 140 92 5 347 317 199 209 159 177 179 176 176 179 184 188 217 210 203 290 68 104 56 13 34 322 115 280 249 219 223 228 220 243 212 341
337 304 356 309 292 294 17 33 84 95 129 68 34 15 347 85 87 353 335 46 140 187 146 133 147 159 176 184 190 185 173 192 191 268 267 200 231 251 240 233 209 206 220 240 233 227 219 171 170
229 333 314 337 309 328 351 314 79 62 40 22 357 353 57 15 105 69 320 321 332 353 183 154 170 178 191 195 200 179 180 180 172 225 227 223 205 191 211 227 225 221 220 241 232 217 223 177 161
180 265 318 297 273 295 285 327 103 88 41 357 356 39 38 22 26 29 349 341 355 332 26 21 186 183 192 187 182 177 183 183 194 207 215 208 213 222 226 220 211 220 212 209 198 187 189 165 168
275 310 298 301 307 309 314 303 28 88 145 26 5 69 44 49 41 23 351 315 289 257 317 326 273 187 180 185 179 177 184 188 198 204 208 210 215 229 224 213 200 205 194 201 186 184 185 172 165
Height
755 754 761 750 772 757 755 746 729 741 743 734 737 783 757 756 774 803 782 786 793 800 805 808 811 814 816 818 820 822 824 825 828 829 831 833 834 835 835 836 835 835 834 833 833 834 837 838 840
756 755 765 774 791 767 764 729 744 740 736 738 740 749 758 768 762 770 779 788 793 800 807 809 812 814 817 819 820 822 824 827 829 831 832 834 836 836 837 836 836 836 835 835 835 838 840 841 842
755 751 763 781 766 767 760 734 740 739 736 737 747 743 753 771 767 772 782 789 794 800 805 809 812 815 817 820 821 824 826 829 830 831 833 835 837 837 837 837 837 838 838 838 838 840 841 841 841
745 741 746 769 753 734 736 732 735 741 739 734 739 764 760 764 769 779 786 789 794 800 806 809 813 816 818 820 822 825 827 829 831 832 834 836 837 837 837 838 839 840 840 840 839 840 841 841 842
739 727 764 752 741 733 727 723 725 737 739 742 744 770 772 769 775 782 785 789 794 802 805 809 814 817 819 821 823 826 828 830 832 834 835 837 837 838 838 839 840 841 841 840 840 841 842 844 845
753 747 760 752 744 732 727 720 723 733 738 746 754 768 773 773 780 784 786 788 793 800 806 811 815 818 820 822 825 827 829 831 832 834 836 838 838 838 839 840 841 842 841 840 839 840 840 842 845
780 782 762 734 746 743 737 726 729 737 742 748 750 770 773 775 780 784 787 788 792 798 805 813 817 820 822 824 826 828 830 832 833 835 837 838 838 838 839 841 843 843 841 839 838 838 840 844 845
775 751 756 748 767 754 732 728 724 732 745 737 738 771 779 773 779 784 787 788 791 796 803 810 817 820 823 825 827 829 830 832 835 836 838 838 838 838 839 842 843 842 840 837 837 839 840 842 845
763 776 787 761 767 748 727 736 728 730 742 741 742 749 761 772 778 784 786 788 793 797 802 808 815 819 822 825 828 830 832 834 835 837 838 838 837 837 839 842 844 841 838 835 836 838 839 841 841
779 779 751 730 745 743 727 731 735 742 744 749 749 753 763 772 777 781 784 788 792 795 799 805 810 816 820 823 827 830 833 834 835 837 836 836 836 836 838 841 842 840 836 834 835 838 840 841 840
777 774 726 725 721 719 726 728 733 748 769 744 755 758 764 770 776 779 782 786 791 794 797 800 806 813 815 819 823 827 830 832 834 835 835 835 837 836 837 839 839 838 835 833 834 837 840 840 830
760 736 727 728 720 723 733 724 738 738 739 733 745 756 762 768 773 776 780 784 790 795 798 800 803 809 813 817 820 824 826 830 832 835 835 836 834 835 836 838 839 838 835 833 833 837 840 842 838
751 729 724 723 720 722 725 734 734 739 732 737 747 756 761 765 769 773 778 782 787 793 797 801 803 808 812 815 818 822 823 827 829 832 835 836 834 834 834 836 839 839 836 832 832 833 839 839 839
733 723 730 728 725 725 733 736 737 736 733 742 750 756 759 761 765 769 774 779 784 791 796 800 803 808 813 815 817 820 823 825 827 829 831 833 833 833 834 836 838 839 838 835 832 832 834 835 834
736 761 739 730 728 732 733 757 767 751 735 747 751 754 756 758 762 765 772 777 783 788 794 798 803 809 813 815 817 820 822 824 827 829 829 832 832 833 833 835 835 837 838 837 835 832 831 834 833
785 788 799 751 746 748 733 799 772 754 745 746 748 752 754 757 759 763 771 777 782 786 791 797 802 807 813 815 817 819 821 823 825 826 826 828 830 831 832 833 834 834 836 838 837 835 833 835 833
795 819 811 786 755 761 744 778 758 769 761 740 743 746 751 754 757 761 768 774 779 784 789 795 800 804 810 813 817 819 820 821 823 824 824 825 828 829 830 831 832 832 833 834 834 835 837 838 838
804 803 791 790 767 752 753 744 756 753 765 751 735 741 744 749 752 757 764 771 776 782 787 794 798 802 806 812 815 818 819 818 819 820 822 822 825 829 829 830 830 829 831 831 833 832 834 837 841
764 770 772 750 744 752 744 733 730 742 748 755 725 736 738 741 743 750 759 766 772 778 784 790 794 799 801 807 812 814 814 816 816 817 817 818 822 825 826 827 826 826 828 834 833 834 834 836 840
748 763 762 736 724 739 737 760 745 737 727 717 721 729 731 732 733 740 750 758 766 772 779 786 791 796 799 803 806 810 811 812 813 813 814 816 819 822 823 821 821 821 823 822 834 833 834 837 839
747 751 746 743 724 728 736 785 765 752 733 712 712 719 724 727 724 723 731 748 756 762 768 775 783 788 792 798 802 805 807 808 809 809 809 810 813 817 821 819 820 819 831 827 832 831 831 835 837
760 731 731 733 747 786 741 821 793 772 760 726 722 719 717 721 722 732 723 731 741 749 762 775 779 780 786 793 798 800 801 803 805 806 805 807 811 812 814 814 819 827 823 822 826 829 831 832 834
742 723 731 726 731 739 739 766 767 753 747 732 724 720 717 715 718 722 728 729 733 740 757 766 778 778 783 787 791 795 797 800 803 804 806 807 808 808 811 814 816 816 821 825 829 830 830 831 831
721 728 724 719 728 773 741 749 764 749 744 738 731 729 727 723 718 714 721 722 735 743 744 759 767 770 773 781 782 788 791 796 799 802 804 808 808 808 812 815 817 820 823 825 827 829 829 830 828
728 732 768 765 769 785 729 739 744 731 731 734 735 732 730 727 723 717 725 722 725 733 739 762 756 764 770 771 779 781 793 799 802 802 805 807 810 811 812 813 815 819 822 824 826 826 827 828 828
739 736 760 787 777 763 719 756 742 712 715 717 719 720 721 724 725 721 716 720 724 722 748 745 751 759 762 766 769 777 786 793 802 805 804 806 807 811 815 809 816 818 820 823 823 823 824 824 825
739 753 726 752 732 750 735 728 719 711 716 722 722 721 722 721 726 731 725 724 737 743 748 744 750 757 760 763 769 776 779 791 796 803 808 805 805 805 811 812 812 815 818 818 819 820 821 821 824
732 724 758 746 782 789 756 751 753 737 732 727 726 724 725 725 727 732 734 733 734 737 742 743 750 757 761 766 769 774 780 783 790 794 792 793 797 801 807 810 809 810 812 818 818 819 822 820 822
735 742 737 734 747 779 782 756 718 728 725 726 721 720 725 727 729 733 736 738 741 743 746 748 750 754 760 763 768 774 776 778 781 787 793 797 801 800 806 807 807 809 810 814 817 819 821 822 824
718 737 739 764 770 750 755 758 701 712 713 714 716 722 726 727 735 739 743 744 745 746 749 750 752 752 753 759 763 770 776 778 783 789 789 795 798 804 809 811 807 809 812 816 815 819 819 820 821